Annaba, Algeria

5:34 AM CET on December 15, 2019 (GMT +0100)
Annaba

Weather History for DABB - July, 2019

Change the Weather History Date:

Monday, July 22, 2019

  Actual Average Record
Temperature  
Mean Temperature 80 °F -  
Max Temperature 89 °F 87 °F - ()
Min Temperature 70 °F 66 °F - ()
Cooling Degree Days 14    
Growing Degree Days 30 (Base 50)    
Moisture  
Dew Point 73 °F    
Average Humidity 80    
Maximum Humidity 100    
Minimum Humidity 55    
Precipitation  
Precipitation 0.00 in 0.01 in - ()
Sea Level Pressure  
Sea Level Pressure 30.06 in    
Wind  
Wind Speed 6 mph ()    
Max Wind Speed 16 mph    
Max Gust Speed -    
Visibility 5.7 miles    
Events      
T = Trace of Precipitation, MM = Missing Value Source: Averaged Metar Reports

Daily Weather History Graph

Daily Weather History Graph

Search for Another Location

Airport or City:

Astronomy

Jul. 22, 2019 Rise Set
Actual Time 5:26 AM CET 7:43 PM CET
Civil Twilight 4:56 AM CET 8:13 PM CET
Nautical Twilight 4:20 AM CET 8:49 PM CET
Astronomical Twilight 3:40 AM CET 9:28 PM CET
Moon 11:04 PM CET (7/22) 10:21 AM CET (7/22)
Length of Visible Light 15h 16m
Length of Day
14h 17m
Waning Gibbous, 74% of the Moon is Illuminated
Jul 22
Waning Gibbous
Jul 25
Last Quarter
Aug 1
New
Aug 7
First Quarter
Aug 15
Full

Hourly Weather History & Observations

Time (CET) Temp. Heat Index Dew Point Humidity Pressure Visibility Wind Dir Wind Speed Gust Speed Precip Events Conditions
12:00 AM 78.8 °F - 75.2 °F 89% 30.06 in 6.2 mi North 8.1 mph - N/A   Partly Cloudy
12:30 AM 77.0 °F - 73.4 °F 89% 30.06 in 6.2 mi North 4.6 mph - N/A   Scattered Clouds
1:00 AM 76 °F - 73 °F 88% 30.08 in 7 mi NNW 3.5 mph - -   Clear
1:00 AM 77.0 °F - 73.4 °F 89% 30.06 in - NNW 3.5 mph - N/A   Clear
1:30 AM 75.2 °F - 73.4 °F 94% 30.06 in - NNW 2.3 mph - N/A   Clear
2:00 AM 73.4 °F - 71.6 °F 94% 30.06 in - Calm Calm - N/A   Clear
3:00 AM 73.4 °F - 71.6 °F 94% 30.06 in - WSW 2.3 mph - N/A   Clear
3:30 AM 73.4 °F - 71.6 °F 94% 30.06 in - WSW 1.2 mph - N/A   Clear
4:00 AM 73 °F - 72 °F 94% 30.06 in 5 mi SW 3.5 mph - -   Clear
4:00 AM 73.4 °F - 71.6 °F 94% 30.04 in 5.0 mi SW 3.5 mph - N/A   Unknown
4:30 AM 73.4 °F - 71.6 °F 94% 30.04 in 5.0 mi SW 3.5 mph - N/A   Unknown
5:00 AM 71.6 °F - 71.6 °F 100% 30.04 in 3.7 mi SSW 2.3 mph - N/A   Unknown
5:30 AM 71.6 °F - 71.6 °F 100% 30.06 in 3.1 mi South 3.5 mph - N/A   Unknown
6:00 AM 71.6 °F - 71.6 °F 100% 30.06 in 3.1 mi SSW 3.5 mph - N/A   Unknown
6:30 AM 71.6 °F - 71.6 °F 100% 30.06 in 1.9 mi Calm Calm - N/A   Partly Cloudy
7:00 AM 73 °F - 72 °F 96% 30.09 in 4 mi South 3.5 mph - -   Partly Cloudy
7:00 AM 73.4 °F - 71.6 °F 94% 30.06 in 3.7 mi South 3.5 mph - N/A   Scattered Clouds
7:30 AM 75.2 °F - 73.4 °F 94% 30.09 in 3.7 mi South 4.6 mph - N/A   Scattered Clouds
8:30 AM 80.6 °F 85.4 °F 73.4 °F 79% 30.09 in 5.0 mi SSW 2.3 mph - N/A   Unknown
9:00 AM 82.4 °F 88.2 °F 73.4 °F 74% 30.09 in - WSW 2.3 mph - N/A   Clear
9:30 AM 84.2 °F 90.9 °F 73.4 °F 70% 30.09 in - NNE 3.5 mph - N/A   Clear
10:00 AM 86 °F - 72 °F 55% 30.10 in 7 mi NE 5.8 mph - -   Scattered Clouds
10:30 AM 87.8 °F 95.6 °F 73.4 °F 62% 30.09 in 6.2 mi NNE 8.1 mph - N/A   Partly Cloudy
11:30 AM 87.8 °F 93.8 °F 71.6 °F 58% 30.06 in 6.2 mi NNE 10.4 mph - N/A   Partly Cloudy
12:00 PM 87.8 °F 95.6 °F 73.4 °F 62% 30.06 in 6.2 mi NNE 12.7 mph - N/A   Partly Cloudy
1:00 PM 85 °F - 73 °F 61% 30.09 in 9 mi NNE 15.0 mph - -   Scattered Clouds
1:00 PM 86.0 °F 93.4 °F 73.4 °F 66% 30.06 in 6.2 mi NNE 15.0 mph - N/A   Partly Cloudy
1:30 PM 86.0 °F 93.4 °F 73.4 °F 66% 30.06 in 6.2 mi NNE 15.0 mph - N/A   Partly Cloudy
2:00 PM 86.0 °F 91.8 °F 71.6 °F 62% 30.06 in 6.2 mi NNE 13.8 mph - N/A   Partly Cloudy
2:30 PM 86.0 °F 95.1 °F 75.2 °F 70% 30.06 in 6.2 mi NNE 15.0 mph - N/A   Partly Cloudy
3:00 PM 84.2 °F 89.6 °F 71.6 °F 66% 30.06 in 6.2 mi NNE 15.0 mph - N/A   Partly Cloudy
3:30 PM 86.0 °F 91.8 °F 71.6 °F 62% 30.04 in 6.2 mi NNE 15.0 mph - N/A   Partly Cloudy
4:00 PM 84 °F - 74 °F 65% 30.06 in 9 mi NNE 16.1 mph - -   Scattered Clouds
4:00 PM 84.2 °F 90.9 °F 73.4 °F 70% 30.04 in 6.2 mi NNE 16.1 mph - N/A   Partly Cloudy
5:30 PM 82.4 °F 88.2 °F 73.4 °F 74% 30.04 in - NNE 15.0 mph - N/A   Clear
6:00 PM 82.4 °F 88.2 °F 73.4 °F 74% 30.04 in - NNE 13.8 mph - N/A   Clear
6:30 PM 82.4 °F 87.2 °F 71.6 °F 70% 30.04 in - NNE 12.7 mph - N/A   Clear
7:00 PM 81 °F - 73 °F 71% 30.06 in 9 mi NNE 11.5 mph - -  
7:30 PM 80.6 °F 85.4 °F 73.4 °F 79% 30.04 in - NNE 10.4 mph - N/A   Clear
8:00 PM 78.8 °F - 73.4 °F 83% 30.04 in - NNE 9.2 mph - N/A   Clear
8:30 PM 78.8 °F - 73.4 °F 83% 30.04 in - NNE 9.2 mph - N/A   Clear
9:00 PM 78.8 °F - 71.6 °F 78% 30.04 in - North 9.2 mph - N/A   Clear
9:30 PM 78.8 °F - 71.6 °F 78% 30.04 in - North 8.1 mph - N/A   Clear
10:00 PM 78 °F - 72 °F 78% 30.06 in 7 mi North 6.9 mph - -  
10:00 PM 78.8 °F - 71.6 °F 78% 30.04 in - North 6.9 mph - N/A   Clear
10:30 PM 77.0 °F - 71.6 °F 83% 30.04 in - NNE 4.6 mph - N/A   Clear
11:30 PM 75.2 °F - 71.6 °F 89% 30.04 in - North 4.6 mph - N/A   Clear